�N����,����,�g�[���i���ԁj���x,�g�[�����x,��g�[���i���ցj���x,����
 2003/11/01, 0:00,19.7,64,17.5,18.3
 2003/11/01, 0:15,19.5,65,17.5,18.3
 2003/11/01, 0:30,19.3,65,17.3,18.3
 2003/11/01, 0:45,19.2,65,17.3,18.3
 2003/11/01, 1:00,19,65,17.4,18.2
 2003/11/01, 1:15,18.9,66,17.3,17.9
 2003/11/01, 1:30,18.9,66,17.3,17.9
 2003/11/01, 1:45,18.9,66,17.2,17.9
 2003/11/01, 2:00,18.7,66,17.2,17.9
 2003/11/01, 2:15,18.7,67,17.1,17.9
 2003/11/01, 2:30,18.6,67,17,17.9
 2003/11/01, 2:45,18.5,67,17,17.9
 2003/11/01, 3:00,18.5,67,16.9,17.9
 2003/11/01, 3:15,18.5,67.5,16.9,17.9
 2003/11/01, 3:30,18.4,68,16.8,17.9
 2003/11/01, 3:45,18.3,68,16.8,17.8
 2003/11/01, 4:00,18.2,68,16.7,17.8
 2003/11/01, 4:15,18.2,68,16.7,17.8
 2003/11/01, 4:30,18.1,68,-9.9,17.8
 2003/11/01, 4:45,18.1,68,-9.9,17.8
 2003/11/01, 5:00,18.1,68,-9.9,17.8
 2003/11/01, 5:15,18,68,-9.9,17.8
 2003/11/01, 5:30,17.9,68,-9.9,17.8
 2003/11/01, 5:45,17.9,67.5,-9.9,17.9
 2003/11/01, 6:00,17.9,67,-9.9,18
 2003/11/01, 6:15,17.8,68,-9.9,18
 2003/11/01, 6:30,17.8,68,-9.9,17.9
 2003/11/01, 6:45,17.8,69,-9.9,17.9
 2003/11/01, 7:00,17.8,69,-9.9,17.9
 2003/11/01, 7:15,17.4,68,16.1,17.8
 2003/11/01, 7:30,17.9,68,16.2,18
 2003/11/01, 7:45,18.5,66.5,16.4,16.4
 2003/11/01, 8:00,18.6,65,16.5,14.9
 2003/11/01, 8:15,18.9,64,16.4,18.2
 2003/11/01, 8:30,19,64,17.2,-9.9
 2003/11/01, 8:45,19.3,64,17.9,20.8
 2003/11/01, 9:00,19.5,64,18.2,-9.9
 2003/11/01, 9:15,19.6,63,18.5,19.6
 2003/11/01, 9:30,19.6,63,18.4,19.8
 2003/11/01, 9:45,19.6,66,18.4,19.8
 2003/11/01,10:00,19.7,66,18.4,19.8
 2003/11/01,10:15,19.6,66,18.5,19.4
 2003/11/01,10:30,19.7,66,18.6,17.6
 2003/11/01,10:45,19.6,66.5,18.9,-9.9
 2003/11/01,11:00,19.7,67,18.8,20.3
 2003/11/01,11:15,20,66.5,19.2,23.1
 2003/11/01,11:30,20.2,65,19.4,24
 2003/11/01,11:45,20.5,61.5,19.9,24.3
 2003/11/01,12:00,20.7,60,20,24.6
 2003/11/01,12:15,21,57.5,20.5,24.8
 2003/11/01,12:30,21.2,58,20.2,24.9
 2003/11/01,12:45,21.5,57,20.8,24.7
 2003/11/01,13:00,21.4,57,20.4,24.5
 2003/11/01,13:15,21.5,57.5,20.6,24.5
 2003/11/01,13:30,22,55,21,24.5
 2003/11/01,13:45,22,54,21.4,24.5
 2003/11/01,14:00,22.6,51,21.7,24.5
 2003/11/01,14:15,22.7,51.5,21.5,24.5
 2003/11/01,14:30,22.7,52,21.4,24.5
 2003/11/01,14:45,22.8,51,21.6,24.6
 2003/11/01,15:00,22.6,53,21.6,24.6
 2003/11/01,15:15,22.9,52.5,21.6,24.5
 2003/11/01,15:30,23.2,51,21.6,24.5
 2003/11/01,15:45,23.2,49.5,22.2,24.5
 2003/11/01,16:00,22.9,49,22,24.5
 2003/11/01,16:15,22.7,50.5,21.8,24.5
 2003/11/01,16:30,22.5,52,21.5,24.5
 2003/11/01,16:45,22.4,53.5,21.4,24.4
 2003/11/01,17:00,22.2,55,21.2,24.3
 2003/11/01,17:15,22.1,56.5,20.5,24.2
 2003/11/01,17:30,21.9,58,20.3,24.2
 2003/11/01,17:45,21.9,59.5,20,24.2
 2003/11/01,18:00,21.4,59,19.5,24.1
 2003/11/01,18:15,21.2,59.5,19.3,24.1
 2003/11/01,18:30,21,60,18.8,24
 2003/11/01,18:45,21,61.5,19,24.3
 2003/11/01,19:00,21.5,60,18.8,24.3
 2003/11/01,19:15,21.4,60,18.6,24
 2003/11/01,19:30,21.1,61,18.4,23.9
 2003/11/01,19:45,21,61,18.2,23.8
 2003/11/01,20:00,20.9,61,18.1,23.7
 2003/11/01,20:15,20.7,61,18.4,23.6
 2003/11/01,20:30,20.8,62,19,23.6
 2003/11/01,20:45,20.9,62,18.9,23.6
 2003/11/01,21:00,21.2,64,18.8,23.6
 2003/11/01,21:15,21.1,63,18.8,23.5
 2003/11/01,21:30,21,63,18.7,23.5
 2003/11/01,21:45,20.9,63,18.6,23.4
 2003/11/01,22:00,20.8,63,18.6,23.4
 2003/11/01,22:15,20.8,63,18.5,23.4
 2003/11/01,22:30,20.8,64,18.6,23.4
 2003/11/01,22:45,20.9,63,18.5,23.3
 2003/11/01,23:00,20.9,62,18.4,23.3
 2003/11/01,23:15,20.9,62.5,18.4,23.2
 2003/11/01,23:30,20.9,62,18.2,23.2
 2003/11/01,23:45,20.8,63,18.1,23.1
 2003/11/02, 0:00,20.8,62,18.1,23.1
 2003/11/02, 0:15,20.6,61.5,18.1,23.1
 2003/11/02, 0:30,20.2,62,18.2,23
 2003/11/02, 0:45,20,62,18.1,23
 2003/11/02, 1:00,19.9,62,18.1,22.9
 2003/11/02, 1:15,19.8,63,18,22.9
 2003/11/02, 1:30,19.7,63,17.9,23
 2003/11/02, 1:45,19.5,63,17.7,23.1
 2003/11/02, 2:00,19.5,63,17.6,23.1
 2003/11/02, 2:15,19.4,63,17.5,23.1
 2003/11/02, 2:30,19.2,63,17.5,23.1
 2003/11/02, 2:45,19.1,63,17.4,23.1
 2003/11/02, 3:00,19,63,17.3,23.1
 2003/11/02, 3:15,19,63,17.2,23.1
 2003/11/02, 3:30,18.9,63,17.2,23.1
 2003/11/02, 3:45,18.8,64,17.1,23.1
 2003/11/02, 4:00,18.7,64,17.1,23.1
 2003/11/02, 4:15,18.6,64,17,23.1
 2003/11/02, 4:30,18.5,64,17,23.1
 2003/11/02, 4:45,18.5,64,16.9,23.1
 2003/11/02, 5:00,18.4,64,16.9,23.1
 2003/11/02, 5:15,18.4,64,16.8,23.1
 2003/11/02, 5:30,18.2,64,16.7,23
 2003/11/02, 5:45,18.2,64,16.6,23
 2003/11/02, 6:00,18.2,64,16.6,23
 2003/11/02, 6:15,18,64,16.7,23
 2003/11/02, 6:30,18,64,16.7,22.9
 2003/11/02, 6:45,18,64.5,16.6,22.8
 2003/11/02, 7:00,18.2,69,16.6,22.8
 2003/11/02, 7:15,18.3,68.5,16.6,22.8
 2003/11/02, 7:30,18.3,67,16.6,22.8
 2003/11/02, 7:45,18.6,70.5,16.7,22.9
 2003/11/02, 8:00,19,68,16.9,22.9
 2003/11/02, 8:15,19,65.5,17.2,22.9
 2003/11/02, 8:30,18.9,65,17.3,23
 2003/11/02, 8:45,18.9,66,17.4,23
 2003/11/02, 9:00,19.2,65,17.9,23
 2003/11/02, 9:15,19.2,67,18,23
 2003/11/02, 9:30,19.2,68,18,23.1
 2003/11/02, 9:45,19.1,69,18,23.2
 2003/11/02,10:00,19.3,69,17.9,23.2
 2003/11/02,10:15,19.8,75.5,17.9,23.3
 2003/11/02,10:30,19.9,74,18,23.3
 2003/11/02,10:45,20,71,18.1,23.8
 2003/11/02,11:00,20,69,18.2,24.1
 2003/11/02,11:15,20.1,69.5,18.5,24.4
 2003/11/02,11:30,20,69,18.7,24.5
 2003/11/02,11:45,20,69,18.8,24
 2003/11/02,12:00,20.1,68,18.8,23.8
 2003/11/02,12:15,20,67.5,19.1,23.8
 2003/11/02,12:30,20.1,68,19.3,23.7
 2003/11/02,12:45,20.1,70,19.4,23.6
 2003/11/02,13:00,20.2,70,19.5,23.6
 2003/11/02,13:15,20.1,70.5,19.5,23.6
 2003/11/02,13:30,20.2,71,19.4,23.6
 2003/11/02,13:45,20.2,70,19.5,23.6
 2003/11/02,14:00,20.2,72,19.6,23.6
 2003/11/02,14:15,20.4,72.5,19.6,23.6
 2003/11/02,14:30,20.3,74,19.7,23.6
 2003/11/02,14:45,20.3,74,19.7,23.7
 2003/11/02,15:00,20.4,75,19.8,23.8
 2003/11/02,15:15,20.7,73.5,20,23.8
 2003/11/02,15:30,21.1,73,20.2,23.8
 2003/11/02,15:45,21.7,74.5,20.2,23.8
 2003/11/02,16:00,22.1,79,20.4,23.8
 2003/11/02,16:15,22,73,20.4,23.8
 2003/11/02,16:30,21.9,71,20.3,23.9
 2003/11/02,16:45,21.8,71,20.1,24.6
 2003/11/02,17:00,21.7,72,19.8,-9.9
 2003/11/02,17:15,21.7,72.5,19.6,-9.9
 2003/11/02,17:30,21.6,74,19.7,-9.9
 2003/11/02,17:45,21.6,73,19.8,-9.9
 2003/11/02,18:00,21.5,73,19.7,-9.9
 2003/11/02,18:15,21.1,74.5,19.2,-9.9
 2003/11/02,18:30,21.3,75,19.2,-9.9
 2003/11/02,18:45,21.9,75,19.1,-9.9
 2003/11/02,19:00,21.6,74,19,-9.9
 2003/11/02,19:15,21.6,73.5,18.9,-9.9
 2003/11/02,19:30,21.6,73,18.8,-9.9
 2003/11/02,19:45,21.5,72.5,18.6,-9.9
 2003/11/02,20:00,21.6,73,18.6,-9.9
 2003/11/02,20:15,21.5,72,18.6,-9.9
 2003/11/02,20:30,21.6,72,18.5,-9.9
 2003/11/02,20:45,21.5,72.5,18.4,-9.9
 2003/11/02,21:00,21.6,71,18.4,-9.9
 2003/11/02,21:15,21.5,72,18.4,-9.9
 2003/11/02,21:30,21.4,72,18.3,-9.9
 2003/11/02,21:45,21.4,72,18.3,-9.9
 2003/11/02,22:00,21.2,72,18.3,-9.9
 2003/11/02,22:15,21.4,72.5,19,18.6
 2003/11/02,22:30,21.6,72,19.1,18.6
 2003/11/02,22:45,21.5,70.5,19.2,18.6
 2003/11/02,23:00,21.5,70,19.2,18.6
 2003/11/02,23:15,21.5,70,19.2,18.7
 2003/11/02,23:30,21.4,70,19.2,18.3
 2003/11/02,23:45,21.4,70,19.2,18.9
 2003/11/03, 0:00,21.4,70,19.1,18.9
 2003/11/03, 0:15,21.2,70.5,19.1,18.8
 2003/11/03, 0:30,21,70,19.2,18.7
 2003/11/03, 0:45,20.8,71,19.1,18.7
 2003/11/03, 1:00,20.6,71,19.1,18.7
 2003/11/03, 1:15,20.6,71,19.1,18.6
 2003/11/03, 1:30,20.6,71,19,18.6
 2003/11/03, 1:45,20.5,71.5,19,18.6
 2003/11/03, 2:00,20.3,72,19,18.6
 2003/11/03, 2:15,20.3,72,19,18.7
 2003/11/03, 2:30,20.2,72,18.9,18.7
 2003/11/03, 2:45,20.1,72,18.9,18.7
 2003/11/03, 3:00,20.1,72,19,18.7
 2003/11/03, 3:15,20,72,18.9,18.7
 2003/11/03, 3:30,20,72,18.9,18.7
 2003/11/03, 3:45,20,72,18.9,18.7
 2003/11/03, 4:00,20,72,18.8,18.2
 2003/11/03, 4:15,20,73,18.8,18.7
 2003/11/03, 4:30,20,74,18.7,18.7
 2003/11/03, 4:45,20,74,18.7,18.7
 2003/11/03, 5:00,19.9,74,18.6,18.7
 2003/11/03, 5:15,19.9,74,18.6,18.7
 2003/11/03, 5:30,19.9,74,18.6,18.8
 2003/11/03, 5:45,19.9,74,18.6,18.8
 2003/11/03, 6:00,19.8,75,18.5,18.8
 2003/11/03, 6:15,19.9,74.5,18.5,18.8
 2003/11/03, 6:30,19.9,74,18.5,18.8
 2003/11/03, 6:45,19.9,77.5,18.6,18.5
 2003/11/03, 7:00,20,79,18.6,18.6
 2003/11/03, 7:15,20,77,18.6,18.6
 2003/11/03, 7:30,20,79,18.6,18.7
 2003/11/03, 7:45,20,80.5,18.6,18.7
 2003/11/03, 8:00,20.1,79,18.8,18.7
 2003/11/03, 8:15,20,80,18.9,18.7
 2003/11/03, 8:30,19.9,81,18.8,18.7
 2003/11/03, 8:45,20,82,18.7,18.6
 2003/11/03, 9:00,20,82,18.7,18.6
 2003/11/03, 9:15,20,82,18.7,18.5
 2003/11/03, 9:30,20,82,18.7,18.5
 2003/11/03, 9:45,20.1,83,18.8,18.5
 2003/11/03,10:00,20.2,86,18.8,18.6
 2003/11/03,10:15,20.1,85.5,18.8,18.6
 2003/11/03,10:30,20.1,83,18.8,18.6
 2003/11/03,10:45,20,83,18.8,18.5
 2003/11/03,11:00,20,84,18.8,18.5
 2003/11/03,11:15,20.2,90,18.8,18.5
 2003/11/03,11:30,20.4,93,18.8,18.5
 2003/11/03,11:45,20.2,92,18.8,18.5
 2003/11/03,12:00,20.4,91,18.9,18.6
 2003/11/03,12:15,20.5,93,19,18.6
 2003/11/03,12:30,20.5,91,18.9,18.6
 2003/11/03,12:45,20.5,88,19,18.6
 2003/11/03,13:00,20.4,87,19,18.6
 2003/11/03,13:15,20.5,87,19,18.6
 2003/11/03,13:30,20.4,86,18.9,18.7
 2003/11/03,13:45,20.4,86,19,18.7
 2003/11/03,14:00,20.4,86,19,18.7
 2003/11/03,14:15,20.6,86.5,19,18.7
 2003/11/03,14:30,20.7,86,19.1,18.7
 2003/11/03,14:45,20.6,85,19,18.7
 2003/11/03,15:00,20.6,85,19.1,18.7
 2003/11/03,15:15,20.5,84.5,19,18.7
 2003/11/03,15:30,20.5,84,19.1,18.7
 2003/11/03,15:45,20.5,83.5,19.2,18.6
 2003/11/03,16:00,20.5,84,19.1,18.6
 2003/11/03,16:15,20.6,83.5,19,18.6
 2003/11/03,16:30,20.6,83,19,18.6
 2003/11/03,16:45,20.7,83,18.8,18.6
 2003/11/03,17:00,20.8,82,18.8,18.6
 2003/11/03,17:15,21,82,19,18.5
 2003/11/03,17:30,21.9,90,18.9,18.6
 2003/11/03,17:45,21.9,88.5,19,18.6
 2003/11/03,18:00,21.2,80,19,18.6
 2003/11/03,18:15,20.9,82.5,19,18.7
 2003/11/03,18:30,20.8,83,19,18.7
 2003/11/03,18:45,20.6,82,19.1,18.8
 2003/11/03,19:00,20.4,81,19.1,18.8
 2003/11/03,19:15,20.5,81.5,19.1,18.8
 2003/11/03,19:30,21.3,86,19,18.8
 2003/11/03,19:45,21.3,84,19,18.9
 2003/11/03,20:00,21.3,83,19,18.9
 2003/11/03,20:15,21.5,82.5,19,18.9
 2003/11/03,20:30,21.4,81,19,18.9
 2003/11/03,20:45,21.4,80.5,19,18.9
 2003/11/03,21:00,21.2,79,19.1,18.9
 2003/11/03,21:15,21.5,79,19.1,18.6
 2003/11/03,21:30,21.6,78,19.2,18.6
 2003/11/03,21:45,21.6,78.5,19.1,18.6
 2003/11/03,22:00,21.6,78,19,18.6
 2003/11/03,22:15,21.7,78.5,19,18.7
 2003/11/03,22:30,21.8,79,19,18.7
 2003/11/03,22:45,22,78.5,19,18.7
 2003/11/03,23:00,22.1,79,18.9,18.7
 2003/11/03,23:15,22.1,78,18.9,18.7
 2003/11/03,23:30,22.1,77,18.8,18.7
 2003/11/03,23:45,22.1,76,18.8,18.7
 2003/11/04, 0:00,22.1,76,18.8,18.7
 2003/11/04, 0:15,22.2,75.5,18.8,18.7
 2003/11/04, 0:30,22,75,18.8,18.8
 2003/11/04, 0:45,21.5,74.5,19,18.9
 2003/11/04, 1:00,21.2,75,19,18.8
 2003/11/04, 1:15,21.1,75,19,18.9
 2003/11/04, 1:30,21,75,19.1,18.9
 2003/11/04, 1:45,20.9,75,19,18.9
 2003/11/04, 2:00,20.7,76,19,18.9
 2003/11/04, 2:15,20.6,76,19,18.9
 2003/11/04, 2:30,20.5,76,19,18.9
 2003/11/04, 2:45,20.4,76,19,18.9
 2003/11/04, 3:00,20.4,76,19,18.9
 2003/11/04, 3:15,20.4,76,19,18.9
 2003/11/04, 3:30,20.4,75,18.9,18.9
 2003/11/04, 3:45,20.3,76,19,18.9
 2003/11/04, 4:00,20.3,76,18.9,18.9
 2003/11/04, 4:15,20.2,76,19,18.9
 2003/11/04, 4:30,20.2,76,18.9,18.4
 2003/11/04, 4:45,20.2,76,18.8,18.8
 2003/11/04, 5:00,20.2,75,18.7,18.8
 2003/11/04, 5:15,20.1,75,18.6,18.8
 2003/11/04, 5:30,20,74,18.5,18.8
 2003/11/04, 5:45,19.9,74,18.5,18.7
 2003/11/04, 6:00,19.8,74,18.5,18.7
 2003/11/04, 6:15,19.8,73.5,18.5,18.8
 2003/11/04, 6:30,19.6,73,18.5,18.8
 2003/11/04, 6:45,19.7,73,18.4,18.8
 2003/11/04, 7:00,19.7,73,18.4,18.8
 2003/11/04, 7:15,19.5,71.5,18.2,18.8
 2003/11/04, 7:30,19.5,72,18.1,18.6
 2003/11/04, 7:45,19.6,70,17.8,18.5
 2003/11/04, 8:00,19.4,65,17.4,18.5
 2003/11/04, 8:15,19.5,65,17.4,18.5
 2003/11/04, 8:30,19.5,63,17.2,18.5
 2003/11/04, 8:45,19.5,63,17.5,18.4
 2003/11/04, 9:00,19.4,63,17.5,18.5
 2003/11/04, 9:15,19.4,59,17.7,18.5
 2003/11/04, 9:30,19.2,56,17.7,18.4
 2003/11/04, 9:45,19.1,55.5,17.9,18.4
 2003/11/04,10:00,19.2,54,18,18.4
 2003/11/04,10:15,19.2,54.5,18.1,18.3
 2003/11/04,10:30,19.1,55,18.4,18.3
 2003/11/04,10:45,19.1,54,18.4,18.3
 2003/11/04,11:00,19.1,55,18.7,18.3
 2003/11/04,11:15,19.1,54,18.5,18.3
 2003/11/04,11:30,19.1,52,18.4,18.3
 2003/11/04,11:45,19.2,52,18.3,18.3
 2003/11/04,12:00,19.3,52,18.3,18.3
 2003/11/04,12:15,19.4,51.5,18.2,18.3
 2003/11/04,12:30,19.5,51,18.3,18.3
 2003/11/04,12:45,19.7,49.5,18.4,18.3
 2003/11/04,13:00,19.9,49,18.5,18.3
 2003/11/04,13:15,20,47.5,18.5,18.3
 2003/11/04,13:30,20.3,46,18.6,18.3
 2003/11/04,13:45,20.4,47,18.6,18.3
 2003/11/04,14:00,20.6,47,18.7,18.3
 2003/11/04,14:15,21,46.5,18.8,18.3
 2003/11/04,14:30,21.1,47,18.7,18.3
 2003/11/04,14:45,21.2,46,18.7,18.3
 2003/11/04,15:00,21.3,45,18.7,18.3
 2003/11/04,15:15,21.5,45,18.6,18.3
 2003/11/04,15:30,21.5,43,18.5,18.3
 2003/11/04,15:45,21.2,43,18.4,18.3
 2003/11/04,16:00,21,42,18.2,18.3
 2003/11/04,16:15,20.8,43,18,18.3
 2003/11/04,16:30,20.4,45,18.3,18.3
 2003/11/04,16:45,20,50,17.8,18.2
 2003/11/04,17:00,20,51,17.6,18.2
 2003/11/04,17:15,20.2,51.5,17.4,18.2
 2003/11/04,17:30,20.3,56,17.1,18.2
 2003/11/04,17:45,20.2,67.5,17,18.2
 2003/11/04,18:00,19.9,60,17.5,18.2
 2003/11/04,18:15,19.1,55,17,18.2
 2003/11/04,18:30,18.8,54,16.8,18.1
 2003/11/04,18:45,18.7,56.5,16.6,18.1
 2003/11/04,19:00,19.4,59,16.5,18
 2003/11/04,19:15,19.3,59,17,18
 2003/11/04,19:30,19.2,59,17,18
 2003/11/04,19:45,19.3,60,16.9,17.9
 2003/11/04,20:00,19.1,59,16.8,17.9
 2003/11/04,20:15,18.9,60,16.9,17.8
 2003/11/04,20:30,18.7,60,16.8,18
 2003/11/04,20:45,18.5,60,16.8,18
 2003/11/04,21:00,18.4,60,16.7,18
 2003/11/04,21:15,18.3,60,16.5,17.9
 2003/11/04,21:30,18.2,60,16.5,17.9
 2003/11/04,21:45,18.5,60,16.2,17.9
 2003/11/04,22:00,18.5,60,16.1,17.8
 2003/11/04,22:15,18.5,60,16.1,17.8
 2003/11/04,22:30,18.4,60,16,17.8
 2003/11/04,22:45,18.4,60.5,15.9,17.8
 2003/11/04,23:00,18.4,61,15.8,17.8
 2003/11/04,23:15,18.4,61,15.8,17.8
 2003/11/04,23:30,18.3,61,15.6,17.7
 2003/11/04,23:45,18.5,62,15.6,17.6
 2003/11/05, 0:00,18.6,62,15.6,17.6
 2003/11/05, 0:15,18.6,61,15.6,17.8
 2003/11/05, 0:30,18.3,61,15.7,18.5
 2003/11/05, 0:45,18,61,15.6,18.4
 2003/11/05, 1:00,17.7,62,15.5,18.3
 2003/11/05, 1:15,17.5,62,15.5,18.2
 2003/11/05, 1:30,17.4,62,15.4,18.2
 2003/11/05, 1:45,17.2,62,15.4,18.1
 2003/11/05, 2:00,17,63,15.3,18.1
 2003/11/05, 2:15,16.9,63,15.1,17.6
 2003/11/05, 2:30,16.8,63,15.1,17.7
 2003/11/05, 2:45,16.6,63.5,15.1,17.7
 2003/11/05, 3:00,16.5,63,14.9,17.7
 2003/11/05, 3:15,16.5,63,14.9,17.6
 2003/11/05, 3:30,16.4,64,14.8,17.6
 2003/11/05, 3:45,16.2,64,14.8,17.5
 2003/11/05, 4:00,16.2,64,14.8,17.5
 2003/11/05, 4:15,16,64,14.8,17.5
 2003/11/05, 4:30,16,64,14.7,17.5
 2003/11/05, 4:45,16,64,14.7,17.5
 2003/11/05, 5:00,16,64,14.7,17.4
 2003/11/05, 5:15,15.9,64.5,14.8,17.5
 2003/11/05, 5:30,15.8,65,14.8,17.5
 2003/11/05, 5:45,15.9,65,14.6,17.5
 2003/11/05, 6:00,15.8,65,14.6,17.4
 2003/11/05, 6:15,15.8,65,14.6,17.4
 2003/11/05, 6:30,15.7,65,14.7,17.4
 2003/11/05, 6:45,15.9,67,14.6,17.3
 2003/11/05, 7:00,16,68,14.6,17
 2003/11/05, 7:15,16,68,14.6,17.8
 2003/11/05, 7:30,16.3,69,14.6,17.8
 2003/11/05, 7:45,16.1,68,14.8,17.6
 2003/11/05, 8:00,16.1,69,14.9,17.7
 2003/11/05, 8:15,16.1,68.5,14.9,18
 2003/11/05, 8:30,16.2,68,15,17.9
 2003/11/05, 8:45,16,69.5,15,17.9
 2003/11/05, 9:00,16.1,69,15.2,17.8
 2003/11/05, 9:15,16.5,72.5,15.4,18.1
 2003/11/05, 9:30,16.6,73,15.6,17.9
 2003/11/05, 9:45,16.9,72,15.9,18.2
 2003/11/05,10:00,16.9,72,15.9,18.1
 2003/11/05,10:15,17.1,76.5,15.9,18.1
 2003/11/05,10:30,17.4,77,16.1,18.1
 2003/11/05,10:45,17.5,72,16.2,18
 2003/11/05,11:00,17.6,70,16.5,18
 2003/11/05,11:15,17.8,68.5,16.6,18
 2003/11/05,11:30,17.8,68,16.8,18
 2003/11/05,11:45,17.9,67.5,17,18
 2003/11/05,12:00,18.1,67,17.1,17.9
 2003/11/05,12:15,18.2,66,17.2,17.9
 2003/11/05,12:30,18.2,66,17.4,17.9
 2003/11/05,12:45,18.4,67,17.5,17.9
 2003/11/05,13:00,18.5,66,17.6,17.9
 2003/11/05,13:15,18.6,66,17.7,17.9
 2003/11/05,13:30,18.7,67,17.8,17.9
 2003/11/05,13:45,18.9,67.5,17.9,17.9
 2003/11/05,14:00,19.1,70,18,17.9
 2003/11/05,14:15,19,69,18,17.9
 2003/11/05,14:30,19.1,69,18,17.9
 2003/11/05,14:45,19.1,68.5,18,17.9
 2003/11/05,15:00,19.1,68,17.9,18.1
 2003/11/05,15:15,19.1,69,17.9,18.1
 2003/11/05,15:30,19.2,69,17.9,18.2
 2003/11/05,15:45,19.2,68.5,18,18.2
 2003/11/05,16:00,19.5,71,18,18.3
 2003/11/05,16:15,19.5,70.5,17.9,18.3
 2003/11/05,16:30,19.3,70,17.9,18.3
 2003/11/05,16:45,19.3,70,17.9,18.3
 2003/11/05,17:00,19.3,70,17.9,18.3
 2003/11/05,17:15,19.4,70,17.9,18.1
 2003/11/05,17:30,19.3,70,17.8,18.1
 2003/11/05,17:45,19.2,70,17.8,18.1
 2003/11/05,18:00,19.1,71,17.9,18.1
 2003/11/05,18:15,19.2,71,17.9,18.1
 2003/11/05,18:30,19.2,71,17.9,18.1
 2003/11/05,18:45,19.2,72,17.8,18.1
 2003/11/05,19:00,19.2,72,17.8,18.1
 2003/11/05,19:15,19.5,74.5,17.8,18.1
 2003/11/05,19:30,19.6,75,17.8,18.1
 2003/11/05,19:45,19.5,74,17.9,18.2
 2003/11/05,20:00,19.5,74,17.8,18.3
 2003/11/05,20:15,19.5,73,17.8,18.3
 2003/11/05,20:30,19.5,73,17.8,18.3
 2003/11/05,20:45,19.5,73,17.8,18.3
 2003/11/05,21:00,19.4,73,17.8,18.3
 2003/11/05,21:15,19.4,73,17.8,18
 2003/11/05,21:30,19.4,73,17.7,18.1
 2003/11/05,21:45,19.5,72.5,17.8,18.1
 2003/11/05,22:00,19.5,73,17.8,18.1
 2003/11/05,22:15,19.5,73.5,17.8,18.1
 2003/11/05,22:30,19.6,73,17.7,18.1
 2003/11/05,22:45,19.6,72.5,17.7,18.1
 2003/11/05,23:00,19.6,72,17.7,18.1
 2003/11/05,23:15,19.5,72,17.8,18.1
 2003/11/05,23:30,19.6,72,17.7,18.2
 2003/11/05,23:45,19.5,72,17.7,18.2
 2003/11/06, 0:00,19.5,73,17.7,18.2
 2003/11/06, 0:15,19.6,72,17.7,18
 2003/11/06, 0:30,19.6,72,17.7,18.2
 2003/11/06, 0:45,19.4,72,17.8,18.2
 2003/11/06, 1:00,19.2,72,17.8,18.2
 2003/11/06, 1:15,19.1,72,17.9,18.2
 2003/11/06, 1:30,19.1,72,17.9,18.2
 2003/11/06, 1:45,19,72,17.9,18.2
 2003/11/06, 2:00,19.1,72,17.8,18.2
 2003/11/06, 2:15,19,72,17.8,18.2
 2003/11/06, 2:30,18.9,72,17.7,18.2
 2003/11/06, 2:45,19,72.5,17.7,18.2
 2003/11/06, 3:00,18.9,73,17.7,18.2
 2003/11/06, 3:15,18.9,73,17.6,18.2
 2003/11/06, 3:30,18.9,73,17.6,18.2
 2003/11/06, 3:45,18.8,73,17.6,18.2
 2003/11/06, 4:00,18.8,73,17.6,18.3
 2003/11/06, 4:15,18.8,73,17.6,18.2
 2003/11/06, 4:30,18.8,73,17.6,18.3
 2003/11/06, 4:45,18.7,73,17.6,18.3
 2003/11/06, 5:00,18.7,73,17.6,18.2
 2003/11/06, 5:15,18.7,73,17.6,18.3
 2003/11/06, 5:30,18.7,73,17.6,18.3
 2003/11/06, 5:45,18.6,73,17.5,18.3
 2003/11/06, 6:00,18.7,73,17.6,18.3
 2003/11/06, 6:15,18.6,73,17.5,18.3
 2003/11/06, 6:30,18.6,73,17.5,18.3
 2003/11/06, 6:45,18.6,73,17.5,18.3
 2003/11/06, 7:00,18.6,73,17.5,18.3
 2003/11/06, 7:15,18.6,73,17.6,18
 2003/11/06, 7:30,18.6,74,17.6,18
 2003/11/06, 7:45,18.6,74,17.7,18
 2003/11/06, 8:00,18.6,74,17.7,18
 2003/11/06, 8:15,18.5,74.5,17.7,17.9
 2003/11/06, 8:30,18.6,74,17.7,18
 2003/11/06, 8:45,18.6,75,17.8,18
 2003/11/06, 9:00,18.6,75,17.9,18
 2003/11/06, 9:15,18.6,74,18,18
 2003/11/06, 9:30,18.7,74,18.1,18
 2003/11/06, 9:45,18.8,73,18.2,18
 2003/11/06,10:00,18.8,73,18.3,18
 2003/11/06,10:15,19,73.5,18.5,18.1
 2003/11/06,10:30,19.2,76,18.7,18.2
 2003/11/06,10:45,19.4,76,18.7,18.2
 2003/11/06,11:00,19.7,82,18.8,18.2
 2003/11/06,11:15,20,85.5,18.9,18.2
 2003/11/06,11:30,20.3,81,19,18.3
 2003/11/06,11:45,20.1,76.5,19.1,18.4
 2003/11/06,12:00,20.3,74,19.2,18.5
 2003/11/06,12:15,20.5,73.5,19.2,18.5
 2003/11/06,12:30,20.6,73,19.4,18.5
 2003/11/06,12:45,20.8,72,19.5,18.5
 2003/11/06,13:00,21.1,71,19.6,18.5
 2003/11/06,13:15,21,71,19.6,18.5
 2003/11/06,13:30,21.1,71,19.7,18.5
 2003/11/06,13:45,21.1,71,19.8,18.6
 2003/11/06,14:00,21.7,73,19.8,18.3
 2003/11/06,14:15,22.5,75,20,18.6
 2003/11/06,14:30,22.5,69,20.1,18.7
 2003/11/06,14:45,22.1,69.5,20,18.5
 2003/11/06,15:00,22,70,19.8,18.7
 2003/11/06,15:15,21.8,69.5,19.8,18.7
 2003/11/06,15:30,21.6,69,19.8,18.7
 2003/11/06,15:45,21.6,70,19.7,18.7
 2003/11/06,16:00,21.6,70,19.7,18.7
 2003/11/06,16:15,21.6,70.5,19.6,18.7
 2003/11/06,16:30,21.5,71,19.6,18.6
 2003/11/06,16:45,21.5,71,19.6,18.6
 2003/11/06,17:00,21.6,71,19.5,18.7
 2003/11/06,17:15,21.5,71,19.6,18.7
 2003/11/06,17:30,21.5,71,19.5,18.7
 2003/11/06,17:45,21.6,75,19.5,18.6
 2003/11/06,18:00,21.4,73,19.5,18.6
 2003/11/06,18:15,21,74.5,19.5,18.6
 2003/11/06,18:30,21,75,19.5,18.6
 2003/11/06,18:45,21.2,77.5,19.5,18.6
 2003/11/06,19:00,21.6,77,19.5,18.7
 2003/11/06,19:15,21.5,75.5,19.5,18.7
 2003/11/06,19:30,21.5,76,19.4,18.7
 2003/11/06,19:45,21.5,75,19.4,18.8
 2003/11/06,20:00,21.5,74,19.3,18.8
 2003/11/06,20:15,21.5,74,19.2,18.8
 2003/11/06,20:30,21.5,73,19.2,18.8
 2003/11/06,20:45,21.5,73.5,19.1,18.8
 2003/11/06,21:00,21.4,73,19.1,18.8
 2003/11/06,21:15,21.3,73,19.1,18.8
 2003/11/06,21:30,21.2,72,19,18.8
 2003/11/06,21:45,21,72.5,18.9,18.5
 2003/11/06,22:00,21,73,18.8,18.4
 2003/11/06,22:15,21,72.5,18.7,18.4
 2003/11/06,22:30,20.9,72,18.7,18.1
 2003/11/06,22:45,20.8,72,18.6,18.3
 2003/11/06,23:00,20.7,72,18.5,18.3
 2003/11/06,23:15,20.6,71,18.5,18.4
 2003/11/06,23:30,20.6,71,18.4,18.4
 2003/11/06,23:45,20.7,71.5,18.4,18.4
 2003/11/07, 0:00,20.6,71,18.3,18.4
 2003/11/07, 0:15,20.5,71,18.2,18.4
 2003/11/07, 0:30,20.4,71,18.1,18.4
 2003/11/07, 0:45,20.4,71,18.1,18.4
 2003/11/07, 1:00,20.3,71,18.2,18.4
 2003/11/07, 1:15,20.3,71,18.1,18.4
 2003/11/07, 1:30,20.4,71,18,18
 2003/11/07, 1:45,20,71,18,18.4
 2003/11/07, 2:00,19.9,71,18,18.4
 2003/11/07, 2:15,19.8,71,17.9,18.4
 2003/11/07, 2:30,19.6,71,17.8,18.4
 2003/11/07, 2:45,19.5,71,17.8,18.4
 2003/11/07, 3:00,19.4,71,17.8,18.4
 2003/11/07, 3:15,19.4,71,17.7,18.4
 2003/11/07, 3:30,19.2,71,17.6,18.4
 2003/11/07, 3:45,19.1,71,17.5,18.4
 2003/11/07, 4:00,19,72,17.5,18.4
 2003/11/07, 4:15,18.9,71.5,17.4,18.4
 2003/11/07, 4:30,18.9,72,17.5,18.4
 2003/11/07, 4:45,18.8,71.5,17.4,18.2
 2003/11/07, 5:00,18.8,71,17.2,18.3
 2003/11/07, 5:15,18.7,71,17.1,18.3
 2003/11/07, 5:30,18.6,71,17.1,18.3
 2003/11/07, 5:45,18.5,71,17,18.3
 2003/11/07, 6:00,18.5,71,17,18.2
 2003/11/07, 6:15,18.5,71,16.9,18.2
 2003/11/07, 6:30,18.3,71,16.8,18.2
 2003/11/07, 6:45,18.2,71,16.8,18.2
 2003/11/07, 7:00,18.2,71,16.8,18.2
 2003/11/07, 7:15,18.2,72,17,18
 2003/11/07, 7:30,18.3,71,17,17.8
 2003/11/07, 7:45,18.5,71,17.1,17.8
 2003/11/07, 8:00,18.9,69,17.2,17.8
 2003/11/07, 8:15,19.1,69.5,17,17.8
 2003/11/07, 8:30,19.4,70,17.6,18.2
 2003/11/07, 8:45,20.2,72.5,18.1,18.2
 2003/11/07, 9:00,20.3,71,18.5,18.3
 2003/11/07, 9:15,20.2,70,18.7,18.3
 2003/11/07, 9:30,20.2,71,18.8,18.3
 2003/11/07, 9:45,20.4,77.5,18.9,18.3
 2003/11/07,10:00,20.4,78,19,18.3
 2003/11/07,10:15,20.3,75,19.2,18.3
 2003/11/07,10:30,20.4,74,19.2,18.3
 2003/11/07,10:45,21,79.5,19.4,18.3
 2003/11/07,11:00,21.3,76,19.5,18.3
 2003/11/07,11:15,21.5,70,19.7,18.3
 2003/11/07,11:30,21.9,68,19.7,18.3
 2003/11/07,11:45,21.8,70,19.9,18.4
 2003/11/07,12:00,21.6,68,20,18.7
 2003/11/07,12:15,21.5,62.5,20,18.7
 2003/11/07,12:30,21.6,62,20.1,18.7
 2003/11/07,12:45,21.8,61.5,20.2,18.6
 2003/11/07,13:00,22.2,60,20.6,18.6
 2003/11/07,13:15,22.5,60.5,20.8,18.6
 2003/11/07,13:30,22.6,60,20.8,18.6
 2003/11/07,13:45,22.5,59.5,20.8,18.7
 2003/11/07,14:00,22.5,59,20.7,19
 2003/11/07,14:15,23,58.5,20.9,19
 2003/11/07,14:30,23.4,56,21,19
 2003/11/07,14:45,24.5,51.5,21.3,19
 2003/11/07,15:00,24.6,47,21.5,19
 2003/11/07,15:15,24.5,50.5,21.5,19
 2003/11/07,15:30,24.1,52,21.4,19
 2003/11/07,15:45,23.9,53.5,21.4,18.8
 2003/11/07,16:00,23.6,56,21.1,18.8
 2003/11/07,16:15,23.2,57.5,20.9,18.9
 2003/11/07,16:30,22.8,59,20.6,18.9
 2003/11/07,16:45,22.5,60.5,20.3,18.9
 2003/11/07,17:00,22.2,62,20.1,18.6
 2003/11/07,17:15,22.1,62,20.3,18.6
 2003/11/07,17:30,22,63,20,18.6
 2003/11/07,17:45,21.9,63.5,19.6,18.6
 2003/11/07,18:00,21.8,63,19.2,18.6
 2003/11/07,18:15,21.6,63,19.2,18.7
 2003/11/07,18:30,21.5,64,19,18.7
 2003/11/07,18:45,21.5,65,19,18.6